• In Uzbekistan
  • List of Countries
  • For 7 days
  • Water Temperature
  • Satellite Maps
  • Weather Map
  • Weather Widgets
  • user-avatar
    Login

    Hourly Weather Kipungo

    Today, 28 May, Sunday

    Time Temperature Precipitation Wind Pressure Humidity
    00:00 +16°C° 0 mm 1 mps 654 mmHg 65%
    01:00 +15°C° 0 mm 1 mps 654 mmHg 65%
    02:00 +15°C° 0 mm 1 mps 654 mmHg 68%
    03:00 +14°C° 0 mm 1 mps 654 mmHg 72%
    04:00 +13°C° 0 mm 1 mps 653 mmHg 76%
    05:00 +14°C° 0 mm 1 mps 654 mmHg 71%
    06:00 +14°C° 0 mm 1 mps 654 mmHg 66%
    07:00 +18°C° 0 mm 1 mps 656 mmHg 56%
    08:00 +21°C° 0 mm 1 mps 656 mmHg 46%
    09:00 +25°C° 0 mm 1 mps 657 mmHg 36%
    10:00 +28°C° 0 mm 1 mps 658 mmHg 26%
    11:00 +30°C° 0 mm 1 mps 658 mmHg 24%
    12:00 +31°C° 0 mm 1 mps 658 mmHg 22%
    13:00 +33°C° 0 mm 1 mps 657 mmHg 19%
    14:00 +32°C° 0 mm 1 mps 657 mmHg 20%
    15:00 +32°C° 0 mm 1 mps 656 mmHg 20%
    16:00 +29°C° 0 mm 0 mps 656 mmHg 21%
    17:00 +28°C° 0 mm 1 mps 655 mmHg 30%
    18:00 +24°C° 0 mm 1 mps 654 mmHg 38%
    19:00 +21°C° 0 mm 1 mps 654 mmHg 47%
    20:00 +21°C° 0 mm 1 mps 654 mmHg 45%
    21:00 +21°C° 0 mm 1 mps 655 mmHg 43%
    22:00 +21°C° 0 mm 1 mps 655 mmHg 41%
    23:00 +20°C° 0 mm 1 mps 655 mmHg 43%

    Tomorrow, 29 May, Monday

    Time Temperature Precipitation Wind Pressure Humidity
    00:00 +19°C° 0 mm 1 mps 655 mmHg 45%
    01:00 +19°C° 0 mm 1 mps 655 mmHg 47%
    02:00 +18°C° 0 mm 1 mps 654 mmHg 49%
    03:00 +16°C° 0 mm 1 mps 654 mmHg 52%
    04:00 +15°C° 0 mm 1 mps 653 mmHg 55%
    05:00 +15°C° 0 mm 1 mps 654 mmHg 57%
    06:00 +16°C° 0 mm 1 mps 654 mmHg 60%
    07:00 +15°C° 0 mm 0 mps 655 mmHg 62%
    08:00 +21°C° 0 mm 1 mps 656 mmHg 53%
    09:00 +25°C° 0 mm 2 mps 657 mmHg 44%
    10:00 +28°C° 0 mm 3 mps 658 mmHg 35%
    11:00 +29°C° 0 mm 3 mps 657 mmHg 32%
    12:00 +31°C° 0 mm 2 mps 657 mmHg 29%
    13:00 +32°C° 0 mm 2 mps 657 mmHg 26%
    14:00 +30°C° 0 mm 2 mps 656 mmHg 30%
    15:00 +29°C° 0 mm 1 mps 656 mmHg 34%
    16:00 +27°C° 0 mm 1 mps 655 mmHg 38%
    17:00 +26°C° 0 mm 1 mps 655 mmHg 44%
    18:00 +24°C° 0 mm 1 mps 655 mmHg 50%
    19:00 +23°C° 0 mm 1 mps 655 mmHg 56%
    20:00 +22°C° 0.1 mm 1 mps 655 mmHg 59%
    21:00 +21°C° 0.1 mm 1 mps 656 mmHg 63%
    22:00 +19°C° 0.1 mm 0 mps 656 mmHg 66%
    23:00 +20°C° 0 mm 1 mps 656 mmHg 66%

    Day after tomorrow, 30 May, Tuesday

    Time Temperature Precipitation Wind Pressure Humidity
    00:00 +20°C° 0 mm 1 mps 656 mmHg 66%
    01:00 +20°C° 0 mm 1 mps 655 mmHg 66%
    02:00 +19°C° 0 mm 1 mps 655 mmHg 70%
    03:00 +18°C° 0 mm 1 mps 655 mmHg 74%
    04:00 +16°C° 0 mm 1 mps 654 mmHg 78%
    05:00 +16°C° 0 mm 1 mps 655 mmHg 78%
    06:00 +18°C° 0 mm 1 mps 655 mmHg 77%
    07:00 +18°C° 0 mm 1 mps 656 mmHg 76%
    08:00 +21°C° 0 mm 1 mps 657 mmHg 63%
    09:00 +24°C° 0 mm 2 mps 658 mmHg 50%
    10:00 +28°C° 0 mm 2 mps 659 mmHg 37%
    11:00 +29°C° 0 mm 2 mps 658 mmHg 33%
    12:00 +30°C° 0 mm 3 mps 658 mmHg 30%
    13:00 +31°C° 0 mm 3 mps 658 mmHg 26%
    14:00 +30°C° 0 mm 3 mps 657 mmHg 28%
    15:00 +29°C° 0 mm 2 mps 656 mmHg 29%
    16:00 +29°C° 0 mm 2 mps 656 mmHg 31%
    17:00 +27°C° 0 mm 2 mps 656 mmHg 35%
    18:00 +25°C° 0 mm 2 mps 655 mmHg 39%
    19:00 +23°C° 0 mm 2 mps 655 mmHg 44%
    20:00 +22°C° 0 mm 1 mps 655 mmHg 47%
    21:00 +20°C° 0 mm 1 mps 655 mmHg 51%
    22:00 +19°C° 0 mm 1 mps 655 mmHg 54%
    23:00 +18°C° 0 mm 1 mps 655 mmHg 57%

    31 May, Wednesday

    Time Temperature Precipitation Wind Pressure Humidity
    00:00 +16°C° 0 mm 1 mps 654 mmHg 61%
    01:00 +15°C° 0 mm 1 mps 654 mmHg 64%
    02:00 +15°C° 0 mm 1 mps 654 mmHg 65%
    03:00 +15°C° 0 mm 1 mps 654 mmHg 66%
    04:00 +14°C° 0 mm 1 mps 654 mmHg 66%
    05:00 +14°C° 0 mm 1 mps 654 mmHg 66%
    06:00 +15°C° 0 mm 1 mps 655 mmHg 65%
    07:00 +15°C° 0 mm 1 mps 655 mmHg 64%
    08:00 +18°C° 0 mm 2 mps 656 mmHg 54%
    09:00 +22°C° 0 mm 3 mps 657 mmHg 44%
    10:00 +26°C° 0 mm 3 mps 658 mmHg 34%
    11:00 +28°C° 0 mm 3 mps 658 mmHg 30%
    12:00 +30°C° 0 mm 3 mps 657 mmHg 27%
    13:00 +31°C° 0 mm 2 mps 657 mmHg 24%
    14:00 +31°C° 0 mm 2 mps 656 mmHg 25%
    15:00 +30°C° 0 mm 1 mps 656 mmHg 26%
    16:00 +30°C° 0 mm 1 mps 655 mmHg 28%
    17:00 +27°C° 0 mm 1 mps 655 mmHg 31%
    18:00 +25°C° 0 mm 1 mps 655 mmHg 34%
    19:00 +23°C° 0 mm 1 mps 655 mmHg 37%
    20:00 +22°C° 0 mm 1 mps 655 mmHg 38%
    21:00 +21°C° 0 mm 2 mps 656 mmHg 39%
    22:00 +20°C° 0 mm 2 mps 656 mmHg 39%
    23:00 +18°C° 0 mm 2 mps 655 mmHg 44%

    1 June, Thursday

    Time Temperature Precipitation Wind Pressure Humidity
    00:00 +18°C° 0 mm 1 mps 654 mmHg 48%
    01:00 +15°C° 0 mm 1 mps 654 mmHg 53%
    02:00 +14°C° 0 mm 1 mps 654 mmHg 56%
    03:00 +13°C° 0 mm 1 mps 653 mmHg 58%
    04:00 +12°C° 0 mm 1 mps 653 mmHg 61%
    05:00 +13°C° 0 mm 1 mps 654 mmHg 59%
    06:00 +13°C° 0 mm 1 mps 654 mmHg 58%
    07:00 +14°C° 0 mm 1 mps 655 mmHg 56%
    08:00 +17°C° 0 mm 2 mps 656 mmHg 47%
    09:00 +21°C° 0 mm 3 mps 657 mmHg 38%
    10:00 +25°C° 0 mm 3 mps 658 mmHg 29%
    11:00 +27°C° 0 mm 3 mps 657 mmHg 26%
    12:00 +29°C° 0 mm 3 mps 657 mmHg 23%
    13:00 +30°C° 0 mm 2 mps 657 mmHg 20%
    14:00 +30°C° 0 mm 2 mps 656 mmHg 20%
    15:00 +30°C° 0 mm 1 mps 656 mmHg 20%
    16:00 +30°C° 0 mm 1 mps 655 mmHg 19%
    17:00 +26°C° 0 mm 1 mps 655 mmHg 27%
    18:00 +22°C° 0 mm 1 mps 654 mmHg 35%
    19:00 +18°C° 0 mm 2 mps 654 mmHg 43%
    20:00 +17°C° 0 mm 2 mps 654 mmHg 43%
    21:00 +16°C° 0 mm 2 mps 654 mmHg 43%
    22:00 +16°C° 0 mm 2 mps 654 mmHg 43%
    23:00 +15°C° 0 mm 1 mps 654 mmHg 46%

    2 June, Friday

    Time Temperature Precipitation Wind Pressure Humidity
    00:00 +13°C° 0 mm 1 mps 653 mmHg 49%
    01:00 +12°C° 0 mm 1 mps 653 mmHg 52%
    02:00 +12°C° 0 mm 1 mps 653 mmHg 53%
    03:00 +12°C° 0 mm 1 mps 653 mmHg 54%
    04:00 +11°C° 0 mm 1 mps 653 mmHg 55%
    05:00 +12°C° 0 mm 1 mps 653 mmHg 55%
    06:00 +13°C° 0 mm 1 mps 654 mmHg 54%
    07:00 +13°C° 0 mm 2 mps 655 mmHg 53%
    08:00 +17°C° 0 mm 2 mps 656 mmHg 44%
    09:00 +21°C° 0 mm 3 mps 657 mmHg 35%
    10:00 +25°C° 0 mm 3 mps 657 mmHg 27%
    11:00 +27°C° 0 mm 3 mps 657 mmHg 24%
    12:00 +29°C° 0 mm 2 mps 657 mmHg 21%
    13:00 +30°C° 0 mm 2 mps 656 mmHg 18%
    14:00 +30°C° 0 mm 1 mps 656 mmHg 18%
    15:00 +30°C° 0 mm 1 mps 655 mmHg 18%
    16:00 +30°C° 0 mm 1 mps 655 mmHg 17%
    17:00 +26°C° 0 mm 1 mps 654 mmHg 24%
    18:00 +22°C° 0 mm 1 mps 654 mmHg 31%
    19:00 +17°C° 0 mm 2 mps 653 mmHg 38%
    20:00 +16°C° 0 mm 1 mps 653 mmHg 40%
    21:00 +15°C° 0 mm 1 mps 654 mmHg 42%
    22:00 +14°C° 0 mm 1 mps 654 mmHg 43%
    23:00 +13°C° 0 mm 1 mps 653 mmHg 48%
    Show more